Location: Emory University Observatory
(33.7903°N, 84.3267°W)
Time: 23:46:37
(UTC-05:00)

Vanguard 2 Rocket - All Passes

Search period start: 17 February 2018 00:00
Search period end: 27 February 2018 00:00
Orbit: 555 x 3327 km, 32.9° (Epoch: 17 February)

Date Brightness Start Highest point End Pass type
(mag) Time Alt. Az. Time Alt. Az. Time Alt. Az.
17 Feb - 00:35:39 10° WSW 00:50:28 78° SSE 01:11:02 10° E visible
17 Feb - 02:51:01 10° W 03:09:38 87° S 03:29:24 10° E visible
17 Feb - 05:08:31 10° WNW 05:28:40 68° SSW 05:45:04 10° SE visible
17 Feb - 07:28:39 10° W 07:44:39 33° SW 07:56:29 10° SSE daylight
17 Feb - 21:25:35 10° S 21:34:24 30° SE 21:47:30 10° E visible
17 Feb - 23:36:07 10° SW 23:48:57 68° SSE 00:08:34 10° ENE visible
18 Feb - 01:50:20 10° W 02:07:09 87° S 02:27:47 10° E visible
18 Feb - 04:06:50 10° W 04:26:36 77° SSW 04:44:50 10° ESE visible
18 Feb - 06:25:31 10° WNW 06:43:58 45° SW 06:58:06 10° SSE visible
18 Feb - 08:51:31 10° WSW 08:57:59 13° SW 09:03:38 10° SSW daylight
18 Feb - 20:28:57 10° SSE 20:35:00 18° SE 20:42:59 10° E visible
18 Feb - 22:37:07 10° SW 22:48:05 55° SSE 23:05:47 10° ENE visible
19 Feb - 00:50:07 10° WSW 01:04:57 85° S 01:25:39 10° E visible
19 Feb - 03:05:40 10° W 03:24:13 83° SSW 03:43:56 10° ESE visible
19 Feb - 05:23:10 10° WNW 05:42:40 57° SSW 05:58:54 10° SE visible
19 Feb - 07:44:47 10° W 07:57:58 23° SW 08:08:31 10° S daylight
19 Feb - 21:38:43 10° SSW 21:47:54 41° SE 22:02:45 10° E visible
19 Feb - 23:50:25 10° WSW 00:03:14 78° SSE 00:23:09 10° E visible
20 Feb - 02:04:58 10° W 02:21:47 87° S 02:42:24 10° E visible
20 Feb - 04:21:27 10° WNW 04:40:50 68° SSW 04:58:57 10° SE visible
20 Feb - 06:40:47 10° W 06:57:29 34° SW 07:10:56 10° SSE visible
20 Feb - 20:41:03 10° S 20:48:20 27° SE 20:59:19 10° E visible
20 Feb - 22:51:11 10° SW 23:02:08 68° SSE 23:20:25 10° ENE visible
21 Feb - 01:04:43 10° W 01:19:33 87° S 01:40:19 10° E visible
21 Feb - 03:20:17 10° W 03:38:40 76° SSW 03:58:17 10° ESE visible
21 Feb - 05:38:01 10° W 05:56:25 45° SW 06:12:13 10° SSE visible
21 Feb - 08:03:05 10° WSW 08:11:16 14° SW 08:18:30 10° SSW daylight
21 Feb - 19:44:50 10° SSE 19:49:14 15° SE 19:54:51 10° E visible
21 Feb - 21:52:26 10° SW 22:01:42 54° SSE 22:17:32 10° ENE visible
22 Feb - 00:04:54 10° WSW 00:17:44 85° S 00:37:46 10° E visible
22 Feb - 02:19:36 10° W 02:36:22 83° SSW 02:56:55 10° ESE visible
22 Feb - 04:36:08 10° WNW 04:54:52 56° SSW 05:12:39 10° SE visible
22 Feb - 06:56:55 10° W 07:10:52 24° SW 07:22:48 10° S daylight
22 Feb - 20:54:13 10° SSW 21:01:54 38° SE 21:14:35 10° E visible
22 Feb - 23:05:31 10° WSW 23:16:27 78° SSE 23:35:00 10° E visible
23 Feb - 01:19:22 10° W 01:34:11 86° S 01:54:55 10° E visible
23 Feb - 03:34:54 10° WNW 03:52:55 67° SSW 04:12:18 10° SE visible
23 Feb - 05:53:20 10° W 06:10:01 34° SW 06:24:53 10° SSE visible
23 Feb - 19:56:45 10° S 20:02:40 24° SE 20:11:25 10° E visible
23 Feb - 22:06:33 10° WSW 22:15:48 67° SSE 22:32:10 10° E visible
24 Feb - 00:19:31 10° W 00:32:21 87° S 00:52:25 10° E visible
24 Feb - 02:34:13 10° W 02:50:49 75° SSW 03:11:11 10° ESE visible
24 Feb - 04:51:02 10° W 05:08:42 45° SW 05:25:50 10° SSE visible
24 Feb - 07:15:11 10° WSW 07:24:18 15° SW 07:32:39 10° SSW daylight
24 Feb - 19:01:11 10° SSE 19:03:48 12° SE 19:06:50 10° ESE visible
24 Feb - 21:07:59 10° SW 21:15:45 52° SSE 21:29:24 10° E visible
24 Feb - 23:20:04 10° WSW 23:30:59 85° S 23:49:37 10° E visible
25 Feb - 01:34:00 10° W 01:48:46 82° SSW 02:09:23 10° ESE visible
25 Feb - 03:49:37 10° W 04:07:00 55° SSW 04:25:53 10° SE visible
25 Feb - 06:09:32 10° W 06:23:33 24° SW 06:36:33 10° S visible
25 Feb - 20:09:55 10° SSW 20:16:18 35° SE 20:26:44 10° E visible
25 Feb - 22:20:56 10° WSW 22:30:10 78° SSE 22:46:45 10° E visible
26 Feb - 00:34:10 10° W 00:46:59 86° S 01:07:00 10° E visible
26 Feb - 02:48:52 10° W 03:05:06 65° SSW 03:25:07 10° SE visible
26 Feb - 05:06:25 10° W 05:22:25 34° SW 05:38:19 10° SSE visible
26 Feb - 19:12:38 10° S 19:17:19 21° SE 19:23:56 10° E visible
26 Feb - 21:22:09 10° WSW 21:29:55 66° SSE 21:44:03 10° E visible
